Home > Weather > Odessa > Past weeks

Flag for USA Weather for the Past 2 Weeks in Odessa, Texas, USA

Now
62 °F

Clear.


Feels Like: 62 °F
Forecast: 52 / 83 °F
Wind: 8 mph from East

Location: Odessa-Schlemeyer Field

Current Time: May 4, 2016 at 1:37:55 AM

Latest Report: May 3, 2016 at 11:53 PM


Visibility: 10 mi

Pressure: 30.07 "Hg (27.10 "Hg at 882m altitude)

Humidity: 56%

Dew Point: 46 °F

Location of OdessaLocation

Historic Weather in Odessa — Graph

°F

Odessa Temperature Yesterday

Maximum temperature yesterday: 80 °F (at 5:53 PM)
Minimum temperature yesterday: 51 °F (at 6:53 AM)
Average temperature yesterday: 65 °F

High & Low Weather Summary for the Past Weeks

 TemperatureHumidityPressure
High91 °F (Apr 24, 3:53 PM)93% (Apr 19, 6:53 AM)30.22 "Hg (Apr 19, 6:53 AM)
Low46 °F (May 2, 5:53 AM)6% (Apr 26, 4:53 PM)29.48 "Hg (Apr 26, 4:53 PM)
Average69 °F43%29.82 "Hg
* Reported Apr 18 11:53 PM — May 3 11:53 PM, Odessa, Weather by CustomWeather, © 2016

Note: Actual official high and low records may vary slightly from our data, if they occured in-between our weather recording intervals... More about our weather records

Advertising

Odessa Weather History for the Previous 24 Hours

Scroll right to see more
 ConditionsComfort  
Time TempWeatherWind HumidityBarometerVisibility
11:53 PM
Tue, May 3
62 °FClear.8 mph56%30.07 "Hg10 mi
10:53 PM64 °FPassing clouds.12 mph52%30.06 "Hg10 mi
9:53 PM66 °FPassing clouds.20 mph52%30.03 "Hg10 mi
8:53 PM73 °FScattered clouds.12 mph29%29.98 "Hg10 mi
7:53 PM80 °FSunny.15 mph17%29.94 "Hg10 mi
6:53 PM80 °FSunny.7 mph19%29.93 "Hg10 mi
5:53 PM80 °FPassing clouds.5 mph19%29.93 "Hg10 mi
4:53 PM79 °FSunny.No wind20%29.93 "Hg10 mi
3:53 PM77 °FSunny.3 mph22%29.96 "Hg10 mi
2:53 PM77 °FSunny.5 mph23%29.97 "Hg10 mi
1:53 PM75 °FSunny.9 mph26%30.00 "Hg10 mi
12:53 PM73 °FSunny.7 mph30%30.03 "Hg10 mi
11:53 AM69 °FSunny.10 mph38%30.04 "Hg10 mi
10:53 AM66 °FSunny.10 mph43%30.06 "Hg10 mi
9:53 AM64 °FSunny.12 mph49%30.06 "Hg10 mi
8:53 AM59 °FSunny.13 mph58%30.06 "Hg10 mi
7:53 AM53 °FClear.6 mph72%30.05 "Hg10 mi
6:53 AM51 °FClear.5 mph71%30.02 "Hg10 mi
5:53 AM52 °FClear.6 mph69%30.03 "Hg10 mi
4:53 AM52 °FClear.7 mph66%30.02 "Hg10 mi
3:53 AM53 °FClear.5 mph64%30.03 "Hg10 mi
2:53 AM54 °FClear.7 mph64%30.04 "Hg10 mi
1:53 AM55 °FClear.6 mph57%30.06 "Hg10 mi
Weather by CustomWeather, © 2016

See weather overviewHow to use our weather pages